Tyler, TX

7:05 AM CDT on August 18, 2017 (GMT -0500)
Tyler Pounds

Weather History for KTYR - November, 2012

Change the Weather History Date:

Sunday, November 11, 2012

  Actual Average Record
Temperature  
Mean Temperature 64 °F 57 °F  
Max Temperature 76 °F 67 °F 83 °F (1985)
Min Temperature 52 °F 48 °F 24 °F (1950)
Degree Days  
Heating Degree Days 1 8  
Month to date heating degree days 17 74  
Since 1 July heating degree days 127 151  
Cooling Degree Days 0 1  
Month to date cooling degree days 24 13  
Year to date cooling degree days 2996 2406  
Growing Degree Days 14 (Base 50)    
Moisture  
Dew Point 62 °F    
Average Humidity 82    
Maximum Humidity 90    
Minimum Humidity 74    
Precipitation  
Precipitation 0.28 in 0.14 in 3.18 in (2008)
Month to date precipitation 0.28 1.59  
Year to date precipitation 31.83 39.04  
Snow  
Snow 0.00 in - - ()
Month to date snowfall 0.0  
Since 1 July snowfall 0.0  
Since 1 September snowfall 0.0  
Snow Depth 0.00 in    
Sea Level Pressure  
Sea Level Pressure 29.95 in    
Wind  
Wind Speed 12 mph (SW)    
Max Wind Speed 25 mph    
Max Gust Speed 32 mph    
Visibility 8 miles    
Events Rain , Thunderstorm    
T = Trace of Precipitation, MM = Missing Value Source: NWS Daily Summary

Daily Weather History Graph

Daily Weather History Graph

Search for Another Location

Airport or City:

Trip Planner

Search our weather history database for the weather conditions in past years. The results will help you decide how hot, cold, wet, or windy it might be!

Date:

Astronomy

Nov. 11, 2012 Rise Set
Actual Time 6:47 AM CST 5:23 PM CST
Civil Twilight 6:21 AM CST 5:49 PM CST
Nautical Twilight 5:52 AM CST 6:18 PM CST
Astronomical Twilight 5:23 AM CST 6:47 PM CST
Moon 4:09 AM CST (11/11) 3:42 PM CST (11/11)
Length of Visible Light 11h 27m
Length of Day
10h 35m
Waning Crescent, 7% of the Moon is Illuminated
Nov 11
Waning Crescent
Nov 13
New
Nov 20
First Quarter
Nov 28
Full
Dec 6
Last Quarter

Hourly Weather History & Observations

Time (CST) Temp. Dew Point Humidity Pressure Visibility Wind Dir Wind Speed Gust Speed Precip Events Conditions
12:48 AM 68.0 °F 60.8 °F 78% 29.92 in 10.0 mi SSE 12.7 mph - N/A   Mostly Cloudy
12:53 AM 68.0 °F 61.0 °F 78% 29.90 in 10.0 mi SSE 11.5 mph - N/A   Mostly Cloudy
1:53 AM 70.0 °F 62.1 °F 76% 29.90 in 10.0 mi South 13.8 mph 24.2 mph N/A   Mostly Cloudy
2:53 AM 69.1 °F 63.0 °F 81% 29.88 in 10.0 mi South 13.8 mph - N/A   Scattered Clouds
3:35 AM 69.8 °F 62.6 °F 78% 29.89 in 10.0 mi South 15.0 mph - N/A   Mostly Cloudy
3:53 AM 69.1 °F 63.0 °F 81% 29.87 in 10.0 mi South 16.1 mph 24.2 mph N/A   Mostly Cloudy
4:53 AM 70.0 °F 64.0 °F 81% 29.87 in 10.0 mi SSE 18.4 mph 24.2 mph N/A   Overcast
5:53 AM 70.0 °F 64.0 °F 81% 29.88 in 10.0 mi SSE 17.3 mph - N/A   Overcast
6:53 AM 70.0 °F 64.0 °F 81% 29.89 in 10.0 mi SSE 11.5 mph 21.9 mph N/A   Overcast
7:31 AM 69.8 °F 64.4 °F 83% 29.92 in 5.0 mi South 15.0 mph 23.0 mph 0.00 in Rain Light Rain
8:11 AM 69.8 °F 66.2 °F 88% 29.94 in 10.0 mi South 13.8 mph - N/A   Overcast
8:53 AM 70.0 °F 66.0 °F 87% 29.93 in 9.0 mi South 12.7 mph - 0.00 in   Overcast
9:28 AM 71.6 °F 66.2 °F 83% 29.95 in 9.0 mi South 15.0 mph - N/A   Overcast
9:53 AM 71.1 °F 66.9 °F 87% 29.94 in 8.0 mi South 13.8 mph 21.9 mph 0.00 in Rain Light Rain
10:30 AM 73.4 °F 66.2 °F 78% 29.94 in 10.0 mi South 17.3 mph - 0.00 in   Scattered Clouds
10:49 AM 73.4 °F 66.2 °F 78% 29.92 in 10.0 mi South 17.3 mph 26.5 mph 0.00 in   Mostly Cloudy
10:53 AM 73.9 °F 66.9 °F 79% 29.91 in 10.0 mi South 19.6 mph 26.5 mph 0.00 in   Mostly Cloudy
11:25 AM 73.4 °F 66.2 °F 78% 29.90 in 10.0 mi South 19.6 mph 28.8 mph N/A   Overcast
12:37 PM 75.2 °F 66.2 °F 73% 29.89 in 10.0 mi SSW 18.4 mph 26.5 mph N/A   Mostly Cloudy
12:53 PM 75.9 °F 66.0 °F 71% 29.87 in 9.0 mi SSW 16.1 mph 26.5 mph 0.00 in Rain Light Rain
1:21 PM 73.4 °F 66.2 °F 78% 29.88 in 10.0 mi WSW 8.1 mph - 0.01 in   Overcast
1:40 PM 73.4 °F 66.2 °F 78% 29.87 in 10.0 mi West 8.1 mph - 0.01 in   Overcast
1:49 PM 71.6 °F 66.2 °F 83% 29.88 in 8.0 mi West 10.4 mph - 0.01 in Rain Light Rain
1:53 PM 71.1 °F 66.9 °F 87% 29.87 in 5.0 mi West 11.5 mph - 0.02 in Rain Light Rain
1:58 PM 71.6 °F 68.0 °F 88% 29.90 in 2.5 mi WSW 11.5 mph - 0.04 in Rain Rain
2:01 PM 71.6 °F 68.0 °F 88% 29.92 in 1.2 mi SW 13.8 mph 19.6 mph 0.11 in Rain , Thunderstorm Heavy Thunderstorms and Rain
2:03 PM 71.6 °F 68.0 °F 88% 29.90 in 0.8 mi SW 16.1 mph 21.9 mph 0.19 in Rain , Thunderstorm Heavy Thunderstorms and Rain
2:10 PM 71.6 °F 68.0 °F 88% 29.89 in 0.8 mi SW 9.2 mph 21.9 mph 0.23 in Rain , Thunderstorm Thunderstorms and Rain
2:14 PM 69.8 °F 68.0 °F 94% 29.89 in 2.5 mi SW 12.7 mph 18.4 mph 0.24 in Rain , Thunderstorm Light Thunderstorms and Rain
2:16 PM 69.8 °F 66.2 °F 88% 29.89 in 5.0 mi SW 11.5 mph 18.4 mph 0.24 in Rain , Thunderstorm Light Thunderstorms and Rain
2:33 PM 71.6 °F 66.2 °F 83% 29.89 in 10.0 mi WSW 9.2 mph 17.3 mph 0.24 in Thunderstorm Overcast
2:40 PM 71.6 °F 66.2 °F 83% 29.89 in 10.0 mi SW 10.4 mph - 0.24 in   Overcast
2:53 PM 71.1 °F 66.0 °F 84% 29.88 in 10.0 mi SW 16.1 mph 21.9 mph 0.24 in Rain Light Rain
3:32 PM 64.4 °F 57.2 °F 77% 29.94 in 10.0 mi NW 20.7 mph 28.8 mph N/A   Overcast
3:53 PM 61.0 °F 55.9 °F 83% 29.95 in 7.0 mi NNW 13.8 mph - 0.00 in Rain Light Rain
4:18 PM 60.8 °F 55.4 °F 82% 29.97 in 10.0 mi NNE 4.6 mph - 0.00 in   Overcast
4:53 PM 59.0 °F 55.0 °F 87% 29.97 in 10.0 mi North 6.9 mph - 0.00 in   Overcast
5:53 PM 59.0 °F 55.0 °F 87% 30.00 in 10.0 mi North 6.9 mph - 0.00 in   Overcast
6:53 PM 57.9 °F 54.0 °F 87% 30.07 in 10.0 mi NNW 4.6 mph - 0.01 in Rain Light Rain
7:53 PM 55.9 °F 50.0 °F 80% 30.09 in 10.0 mi NE 3.5 mph - 0.01 in   Overcast
8:53 PM 55.0 °F 50.0 °F 83% 30.12 in 10.0 mi North 5.8 mph - N/A   Mostly Cloudy
9:38 PM 55.4 °F 50.0 °F 82% 30.17 in 10.0 mi North 3.5 mph - N/A Thunderstorm Thunderstorm
9:53 PM 55.0 °F 50.0 °F 83% 30.17 in 10.0 mi NNW 6.9 mph - N/A   Overcast
10:53 PM 55.0 °F 48.9 °F 80% 30.20 in 10.0 mi NNW 8.1 mph - N/A   Overcast
11:16 PM 53.6 °F 46.4 °F 77% 30.21 in 10.0 mi North 9.2 mph - N/A   Mostly Cloudy
11:53 PM 53.1 °F 45.0 °F 74% 30.22 in 10.0 mi North 9.2 mph - N/A   Mostly Cloudy